Time,TemperatureF,DewpointF,PressureIn,WindDirection,WindDirectionDegrees,WindSpeedMPH,WindSpeedGustMPH,Humidity,HourlyPrecipIn,Conditions,Clouds,dailyrainin,SoftwareType,DateUTC
2013-12-04 00:03:00,53.7,52.3,29.59,SE,130,1.0,1.0,95,0.00,,---,0.00,VWS V14.01,2013-12-04 06:03:00,
2013-12-04 00:08:00,53.8,52.4,29.59,SSE,157,3.0,7.0,95,0.00,,---,0.00,VWS V14.01,2013-12-04 06:08:00,
2013-12-04 00:13:00,53.8,52.4,29.59,SSE,157,0.0,7.0,95,0.00,,---,0.00,VWS V14.01,2013-12-04 06:13:00,
2013-12-04 00:18:00,53.8,52.4,29.58,SSE,149,0.0,7.0,95,0.00,,---,0.00,VWS V14.01,2013-12-04 06:18:00,
2013-12-04 00:23:00,53.8,52.4,29.58,SSE,149,2.0,7.0,95,0.00,,---,0.00,VWS V14.01,2013-12-04 06:23:00,
2013-12-04 00:28:00,53.7,52.3,29.58,South,178,2.0,7.0,95,0.00,,---,0.00,VWS V14.01,2013-12-04 06:28:00,
2013-12-04 00:33:00,53.9,52.5,29.58,ESE,117,2.0,2.0,95,0.00,,---,0.00,VWS V14.01,2013-12-04 06:33:00,
2013-12-04 00:38:00,54.0,52.6,29.58,SSE,157,0.0,6.0,95,0.00,,---,0.00,VWS V14.01,2013-12-04 06:38:00,
2013-12-04 00:43:00,54.3,52.9,29.58,SE,141,3.0,9.0,95,0.00,,---,0.00,VWS V14.01,2013-12-04 06:43:00,
2013-12-04 00:48:00,54.5,53.1,29.58,South,185,0.0,9.0,95,0.00,,---,0.00,VWS V14.01,2013-12-04 06:48:00,
2013-12-04 00:53:00,54.6,53.2,29.58,SE,141,2.0,9.0,95,0.00,,---,0.00,VWS V14.01,2013-12-04 06:53:00,
2013-12-04 00:58:00,54.9,53.5,29.58,SSE,156,0.0,9.0,95,0.00,,---,0.00,VWS V14.01,2013-12-04 06:58:00,
2013-12-04 01:03:00,55.1,53.7,29.58,SE,125,0.0,4.0,95,0.00,,---,0.00,VWS V14.01,2013-12-04 07:03:00,
2013-12-04 01:08:00,55.3,53.9,29.58,ESE,115,4.0,7.0,95,0.00,,---,0.00,VWS V14.01,2013-12-04 07:08:00,
2013-12-04 01:13:00,55.5,54.1,29.58,SSE,164,1.0,9.0,95,0.00,,---,0.00,VWS V14.01,2013-12-04 07:13:00,
2013-12-04 01:18:00,55.6,54.2,29.59,SSE,151,2.0,9.0,95,0.00,,---,0.00,VWS V14.01,2013-12-04 07:18:00,
2013-12-04 01:23:00,55.7,54.3,29.59,South,171,1.0,9.0,95,0.00,,---,0.00,VWS V14.01,2013-12-04 07:23:00,
2013-12-04 01:28:00,55.8,54.4,29.59,South,173,4.0,9.0,95,0.00,,---,0.00,VWS V14.01,2013-12-04 07:28:00,
2013-12-04 01:33:00,56.0,54.6,29.59,SSE,153,5.0,7.0,95,0.00,,---,0.00,VWS V14.01,2013-12-04 07:33:00,
2013-12-04 01:38:00,56.1,54.7,29.59,SSE,159,0.0,8.0,95,0.00,,---,0.00,VWS V14.01,2013-12-04 07:38:00,
2013-12-04 01:43:00,56.1,54.7,29.59,SSE,159,0.0,8.0,95,0.00,,---,0.00,VWS V14.01,2013-12-04 07:43:00,
2013-12-04 01:48:00,56.2,54.8,29.60,SSE,151,0.0,8.0,95,0.00,,---,0.00,VWS V14.01,2013-12-04 07:48:00,
2013-12-04 01:53:00,56.4,55.0,29.60,SSE,151,0.0,8.0,95,0.00,,---,0.00,VWS V14.01,2013-12-04 07:53:00,
2013-12-04 01:58:00,56.5,55.4,29.60,SE,140,1.0,8.0,96,0.00,,---,0.00,VWS V14.01,2013-12-04 07:58:00,
2013-12-04 02:03:00,56.8,55.7,29.59,SE,141,3.0,4.0,96,0.00,,---,0.00,VWS V14.01,2013-12-04 08:03:00,
2013-12-04 02:08:00,57.1,56.0,29.59,SSE,163,0.0,7.0,96,0.00,,---,0.00,VWS V14.01,2013-12-04 08:08:00,
2013-12-04 02:13:00,57.4,56.3,29.59,South,171,3.0,8.0,96,0.00,,---,0.00,VWS V14.01,2013-12-04 08:13:00,
2013-12-04 02:18:00,57.6,56.5,29.58,SE,138,0.0,8.0,96,0.00,,---,0.00,VWS V14.01,2013-12-04 08:18:00,
2013-12-04 02:23:00,57.7,56.6,29.58,SSE,167,1.0,8.0,96,0.00,,---,0.00,VWS V14.01,2013-12-04 08:23:00,
2013-12-04 02:28:00,58.0,56.9,29.58,SSE,163,6.0,11.0,96,0.00,,---,0.00,VWS V14.01,2013-12-04 08:28:00,
2013-12-04 02:33:00,58.2,57.1,29.58,ESE,123,2.0,4.0,96,0.00,,---,0.00,VWS V14.01,2013-12-04 08:33:00,
2013-12-04 02:38:00,58.3,57.2,29.58,SSE,161,4.0,8.0,96,0.00,,---,0.00,VWS V14.01,2013-12-04 08:38:00,
2013-12-04 02:43:00,58.3,57.2,29.58,SSE,155,3.0,8.0,96,0.00,,---,0.00,VWS V14.01,2013-12-04 08:43:00,
2013-12-04 02:48:00,58.4,57.3,29.58,SSE,159,1.0,8.0,96,0.00,,---,0.00,VWS V14.01,2013-12-04 08:48:00,
2013-12-04 02:53:00,58.5,57.4,29.58,SE,144,0.0,11.0,96,0.00,,---,0.00,VWS V14.01,2013-12-04 08:53:00,
2013-12-04 02:58:00,58.5,57.4,29.58,SSE,163,2.0,11.0,96,0.00,,---,0.00,VWS V14.01,2013-12-04 08:58:00,
2013-12-04 03:03:00,58.6,57.5,29.57,South,175,0.0,12.0,96,0.00,,---,0.00,VWS V14.01,2013-12-04 09:03:00,
2013-12-04 03:08:00,58.7,57.6,29.57,South,190,5.0,12.0,96,0.00,,---,0.00,VWS V14.01,2013-12-04 09:08:00,
2013-12-04 03:13:00,58.9,57.8,29.57,SSE,164,2.0,12.0,96,0.00,,---,0.00,VWS V14.01,2013-12-04 09:13:00,
2013-12-04 03:18:00,59.0,57.9,29.57,SSE,165,1.0,12.0,96,0.00,,---,0.00,VWS V14.01,2013-12-04 09:18:00,
2013-12-04 03:23:00,59.0,57.9,29.57,South,170,6.0,12.0,96,0.00,,---,0.00,VWS V14.01,2013-12-04 09:23:00,
2013-12-04 03:28:00,59.0,57.9,29.57,SSE,165,0.0,12.0,96,0.00,,---,0.00,VWS V14.01,2013-12-04 09:28:00,
2013-12-04 03:33:00,59.0,57.9,29.57,South,169,3.0,5.0,96,0.00,,---,0.00,VWS V14.01,2013-12-04 09:33:00,
2013-12-04 03:38:00,59.0,57.9,29.57,South,175,8.0,10.0,96,0.00,,---,0.00,VWS V14.01,2013-12-04 09:38:00,
2013-12-04 03:43:00,59.0,57.9,29.57,South,186,4.0,10.0,96,0.00,,---,0.00,VWS V14.01,2013-12-04 09:43:00,
2013-12-04 03:48:00,59.1,58.0,29.57,South,184,2.0,10.0,96,0.00,,---,0.00,VWS V14.01,2013-12-04 09:48:00,
2013-12-04 03:53:00,59.2,58.1,29.57,South,182,5.0,10.0,96,0.00,,---,0.00,VWS V14.01,2013-12-04 09:53:00,
2013-12-04 03:58:00,59.4,58.3,29.57,SSE,150,0.0,10.0,96,0.00,,---,0.00,VWS V14.01,2013-12-04 09:58:00,
2013-12-04 04:03:00,59.5,58.4,29.57,SE,139,2.0,3.0,96,0.00,,---,0.00,VWS V14.01,2013-12-04 10:03:00,
2013-12-04 04:08:00,59.6,58.5,29.57,South,178,0.0,10.0,96,0.00,,---,0.00,VWS V14.01,2013-12-04 10:08:00,
2013-12-04 04:13:00,59.6,58.5,29.57,SSE,162,0.0,10.0,96,0.00,,---,0.00,VWS V14.01,2013-12-04 10:13:00,
2013-12-04 04:18:00,59.7,58.6,29.57,South,173,2.0,10.0,96,0.00,,---,0.00,VWS V14.01,2013-12-04 10:18:00,
2013-12-04 04:23:00,59.8,58.7,29.57,SSE,163,2.0,10.0,96,0.00,,---,0.00,VWS V14.01,2013-12-04 10:23:00,
2013-12-04 04:28:00,59.8,58.7,29.57,SSE,150,0.0,10.0,96,0.00,,---,0.00,VWS V14.01,2013-12-04 10:28:00,
2013-12-04 04:33:00,59.9,58.8,29.58,South,180,3.0,4.0,96,0.00,,---,0.00,VWS V14.01,2013-12-04 10:33:00,
2013-12-04 04:38:00,59.9,58.8,29.58,SSE,163,0.0,6.0,96,0.00,,---,0.00,VWS V14.01,2013-12-04 10:38:00,
2013-12-04 04:43:00,60.0,58.9,29.58,SSE,162,1.0,6.0,96,0.00,,---,0.00,VWS V14.01,2013-12-04 10:43:00,
2013-12-04 04:48:00,60.0,58.9,29.57,SE,140,4.0,7.0,96,0.00,,---,0.00,VWS V14.01,2013-12-04 10:48:00,
2013-12-04 04:53:00,60.1,59.0,29.57,South,187,2.0,7.0,96,0.00,,---,0.00,VWS V14.01,2013-12-04 10:53:00,
2013-12-04 04:58:00,60.2,58.8,29.57,SSE,166,4.0,7.0,95,0.00,,---,0.00,VWS V14.01,2013-12-04 10:58:00,
2013-12-04 05:03:00,60.2,58.8,29.57,SSE,153,2.0,4.0,95,0.00,,---,0.00,VWS V14.01,2013-12-04 11:03:00,
2013-12-04 05:08:00,60.4,59.3,29.57,SSE,163,3.0,9.0,96,0.00,,---,0.00,VWS V14.01,2013-12-04 11:08:00,
2013-12-04 05:13:00,60.5,59.4,29.57,SSE,156,0.0,11.0,96,0.00,,---,0.00,VWS V14.01,2013-12-04 11:13:00,
2013-12-04 05:18:00,60.6,59.2,29.57,South,180,4.0,11.0,95,0.00,,---,0.00,VWS V14.01,2013-12-04 11:18:00,
2013-12-04 05:23:00,60.7,59.3,29.57,SE,145,3.0,11.0,95,0.00,,---,0.00,VWS V14.01,2013-12-04 11:23:00,
2013-12-04 05:28:00,60.8,59.4,29.57,SSE,168,1.0,11.0,95,0.00,,---,0.00,VWS V14.01,2013-12-04 11:28:00,
2013-12-04 05:33:00,60.9,59.5,29.57,SSE,163,0.0,7.0,95,0.00,,---,0.00,VWS V14.01,2013-12-04 11:33:00,
2013-12-04 05:38:00,61.0,59.6,29.57,SSE,162,0.0,7.0,95,0.00,,---,0.00,VWS V14.01,2013-12-04 11:38:00,
2013-12-04 05:43:00,61.1,59.7,29.57,South,175,3.0,7.0,95,0.00,,---,0.00,VWS V14.01,2013-12-04 11:43:00,
2013-12-04 05:48:00,61.1,59.7,29.57,South,180,1.0,7.0,95,0.00,,---,0.00,VWS V14.01,2013-12-04 11:48:00,
2013-12-04 05:53:00,61.3,59.9,29.57,South,189,0.0,7.0,95,0.00,,---,0.00,VWS V14.01,2013-12-04 11:53:00,
2013-12-04 05:58:00,61.4,60.0,29.57,South,171,6.0,7.0,95,0.00,,---,0.00,VWS V14.01,2013-12-04 11:58:00,
2013-12-04 06:03:00,61.6,60.2,29.58,SSE,159,7.0,7.0,95,0.00,,---,0.00,VWS V14.01,2013-12-04 12:03:00,
2013-12-04 06:08:00,61.6,60.2,29.58,SE,146,1.0,7.0,95,0.00,,---,0.00,VWS V14.01,2013-12-04 12:08:00,
2013-12-04 06:13:00,61.7,60.0,29.58,ESE,115,2.0,7.0,94,0.00,,---,0.00,VWS V14.01,2013-12-04 12:13:00,
2013-12-04 06:18:00,61.8,60.1,29.58,SE,146,4.0,10.0,94,0.00,,---,0.00,VWS V14.01,2013-12-04 12:18:00,
2013-12-04 06:23:00,61.9,60.2,29.58,ESE,118,1.0,10.0,94,0.00,,---,0.00,VWS V14.01,2013-12-04 12:23:00,
2013-12-04 06:28:00,61.8,60.1,29.58,SSE,163,0.0,10.0,94,0.00,,---,0.00,VWS V14.01,2013-12-04 12:28:00,
2013-12-04 06:33:00,61.9,60.2,29.60,SSE,153,0.0,2.0,94,0.00,,---,0.00,VWS V14.01,2013-12-04 12:33:00,
2013-12-04 06:38:00,61.9,60.2,29.60,South,170,3.0,7.0,94,0.00,,---,0.00,VWS V14.01,2013-12-04 12:38:00,
2013-12-04 06:43:00,62.0,60.3,29.60,SW,214,1.0,7.0,94,0.00,,---,0.00,VWS V14.01,2013-12-04 12:43:00,
2013-12-04 06:48:00,62.0,60.3,29.60,SSE,158,0.0,7.0,94,0.00,,---,0.00,VWS V14.01,2013-12-04 12:48:00,
2013-12-04 06:53:00,62.0,60.3,29.60,SSE,159,1.0,7.0,94,0.00,,---,0.00,VWS V14.01,2013-12-04 12:53:00,
2013-12-04 06:58:00,62.0,60.3,29.60,SSE,153,0.0,7.0,94,0.00,,---,0.00,VWS V14.01,2013-12-04 12:58:00,
2013-12-04 07:03:00,62.0,60.3,29.60,SE,142,1.0,4.0,94,0.00,,---,0.00,VWS V14.01,2013-12-04 13:03:00,
2013-12-04 07:08:00,62.0,60.3,29.60,SSE,164,1.0,7.0,94,0.00,,---,0.00,VWS V14.01,2013-12-04 13:08:00,
2013-12-04 07:13:00,62.0,60.3,29.60,SE,139,0.0,8.0,94,0.00,,---,0.00,VWS V14.01,2013-12-04 13:13:00,
2013-12-04 07:18:00,61.9,59.9,29.60,South,182,0.0,8.0,93,0.00,,---,0.00,VWS V14.01,2013-12-04 13:18:00,
2013-12-04 07:23:00,61.9,59.9,29.60,South,173,5.0,8.0,93,0.00,,---,0.00,VWS V14.01,2013-12-04 13:23:00,
2013-12-04 07:28:00,62.1,60.1,29.60,SSE,167,1.0,8.0,93,0.00,,---,0.00,VWS V14.01,2013-12-04 13:28:00,
2013-12-04 07:33:00,62.2,60.2,29.60,South,173,2.0,9.0,93,0.00,,---,0.00,VWS V14.01,2013-12-04 13:33:00,
2013-12-04 07:38:00,62.3,60.2,29.60,South,182,1.0,9.0,93,0.00,,---,0.00,VWS V14.01,2013-12-04 13:38:00,
2013-12-04 07:43:00,62.5,60.5,29.60,SE,146,0.0,12.0,93,0.00,,---,0.00,VWS V14.01,2013-12-04 13:43:00,
2013-12-04 07:48:00,62.7,60.3,29.59,SSE,157,2.0,12.0,92,0.00,,---,0.00,VWS V14.01,2013-12-04 13:48:00,
2013-12-04 07:53:00,62.8,60.5,29.59,SSE,168,2.0,12.0,92,0.00,,---,0.00,VWS V14.01,2013-12-04 13:53:00,
2013-12-04 07:58:00,62.9,60.5,29.59,South,191,5.0,12.0,92,0.00,,---,0.00,VWS V14.01,2013-12-04 13:58:00,
2013-12-04 08:03:00,63.0,60.3,29.59,South,179,7.0,7.0,91,0.00,,---,0.00,VWS V14.01,2013-12-04 14:03:00,
2013-12-04 08:08:00,63.2,60.5,29.59,SSW,195,7.0,8.0,91,0.00,,---,0.00,VWS V14.01,2013-12-04 14:08:00,
2013-12-04 08:13:00,63.3,60.6,29.59,SE,136,0.0,12.0,91,0.00,,---,0.00,VWS V14.01,2013-12-04 14:13:00,
2013-12-04 08:18:00,63.5,60.5,29.59,South,179,5.0,12.0,90,0.00,,---,0.00,VWS V14.01,2013-12-04 14:18:00,
2013-12-04 08:23:00,63.7,60.7,29.59,South,182,5.0,12.0,90,0.00,,---,0.00,VWS V14.01,2013-12-04 14:23:00,
2013-12-04 08:28:00,63.9,60.9,29.59,South,191,0.0,12.0,90,0.00,,---,0.00,VWS V14.01,2013-12-04 14:28:00,
2013-12-04 08:33:00,64.0,61.0,29.60,South,175,9.0,9.0,90,0.00,,---,0.00,VWS V14.01,2013-12-04 14:33:00,
2013-12-04 08:38:00,64.2,60.9,29.60,South,182,0.0,10.0,89,0.00,,---,0.00,VWS V14.01,2013-12-04 14:38:00,
2013-12-04 08:43:00,64.3,61.0,29.60,South,186,4.0,13.0,89,0.00,,---,0.00,VWS V14.01,2013-12-04 14:43:00,
2013-12-04 08:48:00,64.4,61.1,29.60,SW,217,0.0,13.0,89,0.00,,---,0.00,VWS V14.01,2013-12-04 14:48:00,
2013-12-04 08:54:00,64.4,60.8,29.60,West,275,3.0,15.0,88,0.00,,---,0.00,VWS V14.01,2013-12-04 14:54:00,
2013-12-04 08:59:00,64.5,60.9,29.60,SSE,158,5.0,15.0,88,0.00,,---,0.00,VWS V14.01,2013-12-04 14:59:00,
2013-12-04 09:04:00,64.5,60.9,29.60,South,179,4.0,6.0,88,0.00,,---,0.00,VWS V14.01,2013-12-04 15:04:00,
2013-12-04 09:09:00,64.5,60.5,29.60,South,173,1.0,14.0,87,0.00,,---,0.00,VWS V14.01,2013-12-04 15:09:00,
2013-12-04 09:14:00,64.7,60.8,29.60,South,175,0.0,14.0,87,0.00,,---,0.00,VWS V14.01,2013-12-04 15:14:00,
2013-12-04 09:19:00,64.7,60.8,29.61,WSW,247,6.0,14.0,87,0.00,,---,0.00,VWS V14.01,2013-12-04 15:19:00,
2013-12-04 09:24:00,64.8,60.8,29.61,SSE,157,5.0,14.0,87,0.00,,---,0.00,VWS V14.01,2013-12-04 15:24:00,
2013-12-04 09:29:00,64.8,60.5,29.61,South,186,10.0,14.0,86,0.00,,---,0.00,VWS V14.01,2013-12-04 15:29:00,
2013-12-04 09:34:00,64.9,60.6,29.60,South,175,5.0,6.0,86,0.00,,---,0.00,VWS V14.01,2013-12-04 15:34:00,
2013-12-04 09:39:00,65.0,60.7,29.60,SW,219,0.0,13.0,86,0.00,,---,0.00,VWS V14.01,2013-12-04 15:39:00,
2013-12-04 09:44:00,65.2,60.6,29.60,SW,219,3.0,13.0,85,0.00,,---,0.00,VWS V14.01,2013-12-04 15:44:00,
2013-12-04 09:49:00,65.3,60.7,29.61,SSE,163,2.0,14.0,85,0.00,,---,0.00,VWS V14.01,2013-12-04 15:49:00,
2013-12-04 09:54:00,65.4,60.8,29.61,South,188,1.0,14.0,85,0.00,,---,0.00,VWS V14.01,2013-12-04 15:54:00,
2013-12-04 09:59:00,65.6,60.6,29.61,SSW,207,0.0,14.0,84,0.00,,---,0.00,VWS V14.01,2013-12-04 15:59:00,
2013-12-04 10:04:00,65.8,60.8,29.61,SSW,211,3.0,7.0,84,0.00,,---,0.00,VWS V14.01,2013-12-04 16:04:00,
2013-12-04 10:09:00,65.9,60.9,29.61,SSE,163,0.0,7.0,84,0.00,,---,0.00,VWS V14.01,2013-12-04 16:09:00,
2013-12-04 10:14:00,66.1,61.1,29.61,SSW,213,0.0,12.0,84,0.00,,---,0.00,VWS V14.01,2013-12-04 16:14:00,
2013-12-04 10:19:00,66.4,61.1,29.61,SSE,153,11.0,14.0,83,0.00,,---,0.00,VWS V14.01,2013-12-04 16:19:00,
2013-12-04 10:24:00,66.6,60.9,29.61,South,189,0.0,17.0,82,0.00,,---,0.00,VWS V14.01,2013-12-04 16:24:00,
2013-12-04 10:29:00,66.8,61.1,29.61,SW,224,5.0,17.0,82,0.00,,---,0.00,VWS V14.01,2013-12-04 16:29:00,
2013-12-04 10:34:00,67.0,61.0,29.61,SSW,207,3.0,6.0,81,0.00,,---,0.00,VWS V14.01,2013-12-04 16:34:00,
2013-12-04 10:39:00,67.3,61.3,29.61,SSW,209,2.0,11.0,81,0.00,,---,0.00,VWS V14.01,2013-12-04 16:39:00,
2013-12-04 10:44:00,67.4,61.0,29.61,SSW,208,3.0,13.0,80,0.00,,---,0.00,VWS V14.01,2013-12-04 16:44:00,
2013-12-04 10:49:00,67.5,60.8,29.60,SSW,192,4.0,13.0,79,0.00,,---,0.00,VWS V14.01,2013-12-04 16:49:00,
2013-12-04 10:54:00,67.7,61.0,29.60,South,190,0.0,13.0,79,0.00,,---,0.00,VWS V14.01,2013-12-04 16:54:00,
2013-12-04 10:59:00,67.8,61.1,29.60,SW,222,2.0,13.0,79,0.00,,---,0.00,VWS V14.01,2013-12-04 16:59:00,
2013-12-04 11:04:00,67.9,61.2,29.60,SW,220,3.0,7.0,79,0.00,,---,0.00,VWS V14.01,2013-12-04 17:04:00,
2013-12-04 11:09:00,68.1,61.0,29.60,SSW,209,1.0,10.0,78,0.00,,---,0.00,VWS V14.01,2013-12-04 17:09:00,
2013-12-04 11:14:00,68.3,61.2,29.60,SSW,207,2.0,13.0,78,0.00,,---,0.00,VWS V14.01,2013-12-04 17:14:00,
2013-12-04 11:19:00,68.7,60.8,29.59,SW,229,4.0,16.0,76,0.00,,---,0.00,VWS V14.01,2013-12-04 17:19:00,
2013-12-04 11:24:00,68.9,61.0,29.59,WSW,252,3.0,16.0,76,0.00,,---,0.00,VWS V14.01,2013-12-04 17:24:00,
2013-12-04 11:29:00,69.2,61.0,29.59,SSE,161,2.0,16.0,75,0.00,,---,0.00,VWS V14.01,2013-12-04 17:29:00,
2013-12-04 11:34:00,69.1,60.8,29.58,SW,218,1.0,9.0,75,0.00,,---,0.00,VWS V14.01,2013-12-04 17:34:00,
2013-12-04 11:39:00,69.1,60.8,29.58,South,178,9.0,16.0,75,0.00,,---,0.00,VWS V14.01,2013-12-04 17:39:00,
2013-12-04 11:44:00,69.2,61.0,29.58,SSW,201,2.0,16.0,75,0.00,,---,0.00,VWS V14.01,2013-12-04 17:44:00,
2013-12-04 11:49:00,69.3,60.7,29.57,SSW,200,4.0,16.0,74,0.00,,---,0.00,VWS V14.01,2013-12-04 17:49:00,
2013-12-04 11:54:00,69.8,61.2,29.57,WSW,248,12.0,16.0,74,0.00,,---,0.00,VWS V14.01,2013-12-04 17:54:00,
2013-12-04 11:59:00,70.3,60.9,29.57,South,186,8.0,16.0,72,0.00,,---,0.00,VWS V14.01,2013-12-04 17:59:00,
2013-12-04 12:04:00,71.0,61.1,29.56,SW,229,14.0,17.0,71,0.00,,---,0.00,VWS V14.01,2013-12-04 18:04:00,
2013-12-04 12:09:00,71.3,61.0,29.56,SW,217,3.0,17.0,70,0.00,,---,0.00,VWS V14.01,2013-12-04 18:09:00,
2013-12-04 12:14:00,71.5,61.2,29.56,South,186,0.0,17.0,70,0.00,,---,0.00,VWS V14.01,2013-12-04 18:14:00,
2013-12-04 12:19:00,71.9,61.2,29.56,SSE,165,9.0,18.0,69,0.00,,---,0.00,VWS V14.01,2013-12-04 18:19:00,
2013-12-04 12:24:00,72.1,61.4,29.56,WSW,238,2.0,18.0,69,0.00,,---,0.00,VWS V14.01,2013-12-04 18:24:00,
2013-12-04 12:29:00,72.1,61.4,29.56,South,190,4.0,18.0,69,0.00,,---,0.00,VWS V14.01,2013-12-04 18:29:00,
2013-12-04 12:34:00,72.0,61.3,29.56,ESE,118,10.0,17.0,69,0.00,,---,0.00,VWS V14.01,2013-12-04 18:34:00,
2013-12-04 12:39:00,72.1,61.4,29.56,SW,236,6.0,17.0,69,0.00,,---,0.00,VWS V14.01,2013-12-04 18:39:00,
2013-12-04 12:44:00,72.4,61.7,29.56,SW,235,5.0,17.0,69,0.00,,---,0.00,VWS V14.01,2013-12-04 18:44:00,
2013-12-04 12:49:00,72.3,61.2,29.55,SSW,211,4.0,19.0,68,0.00,,---,0.00,VWS V14.01,2013-12-04 18:49:00,
2013-12-04 12:54:00,72.3,61.2,29.55,SSW,206,3.0,19.0,68,0.00,,---,0.00,VWS V14.01,2013-12-04 18:54:00,
2013-12-04 12:59:00,72.3,61.2,29.55,SW,217,9.0,19.0,68,0.00,,---,0.00,VWS V14.01,2013-12-04 18:59:00,
2013-12-04 13:04:00,72.4,61.2,29.54,SSE,159,8.0,15.0,68,0.00,,---,0.00,VWS V14.01,2013-12-04 19:04:00,
2013-12-04 13:09:00,72.4,61.2,29.54,South,184,3.0,15.0,68,0.00,,---,0.00,VWS V14.01,2013-12-04 19:09:00,
2013-12-04 13:14:00,72.8,61.6,29.54,ESE,110,0.0,15.0,68,0.00,,---,0.00,VWS V14.01,2013-12-04 19:14:00,
2013-12-04 13:19:00,73.0,61.8,29.53,SW,219,4.0,15.0,68,0.00,,---,0.00,VWS V14.01,2013-12-04 19:19:00,
2013-12-04 13:24:00,73.5,61.5,29.53,SW,224,9.0,15.0,66,0.00,,---,0.00,VWS V14.01,2013-12-04 19:24:00,
2013-12-04 13:29:00,73.8,61.7,29.53,SSW,211,10.0,15.0,66,0.00,,---,0.00,VWS V14.01,2013-12-04 19:29:00,
2013-12-04 13:34:00,73.9,61.8,29.53,SW,215,6.0,12.0,66,0.00,,---,0.00,VWS V14.01,2013-12-04 19:34:00,
2013-12-04 13:39:00,73.7,61.7,29.53,South,171,10.0,21.0,66,0.00,,---,0.00,VWS V14.01,2013-12-04 19:39:00,
2013-12-04 13:44:00,73.6,61.5,29.53,SE,146,5.0,21.0,66,0.00,,---,0.00,VWS V14.01,2013-12-04 19:44:00,
2013-12-04 13:49:00,73.8,61.3,29.53,East,97,0.0,21.0,65,0.00,,---,0.00,VWS V14.01,2013-12-04 19:49:00,
2013-12-04 13:54:00,74.0,61.5,29.53,SSW,198,3.0,21.0,65,0.00,,---,0.00,VWS V14.01,2013-12-04 19:54:00,
2013-12-04 13:59:00,74.1,61.6,29.53,South,186,2.0,21.0,65,0.00,,---,0.00,VWS V14.01,2013-12-04 19:59:00,
2013-12-04 14:04:00,73.8,61.3,29.53,SSW,213,3.0,10.0,65,0.00,,---,0.00,VWS V14.01,2013-12-04 20:04:00,
2013-12-04 14:09:00,73.6,61.1,29.53,SW,225,0.0,12.0,65,0.00,,---,0.00,VWS V14.01,2013-12-04 20:09:00,
2013-12-04 14:14:00,73.4,60.9,29.53,SSW,199,7.0,12.0,65,0.00,,---,0.00,VWS V14.01,2013-12-04 20:14:00,
2013-12-04 14:19:00,73.3,60.8,29.52,WSW,255,4.0,14.0,65,0.00,,---,0.00,VWS V14.01,2013-12-04 20:19:00,
2013-12-04 14:24:00,73.2,61.2,29.52,SW,220,10.0,14.0,66,0.00,,---,0.00,VWS V14.01,2013-12-04 20:24:00,
2013-12-04 14:29:00,73.2,61.2,29.52,SW,224,5.0,14.0,66,0.00,,---,0.00,VWS V14.01,2013-12-04 20:29:00,
2013-12-04 14:34:00,73.2,60.7,29.52,WSW,253,7.0,9.0,65,0.00,,---,0.00,VWS V14.01,2013-12-04 20:34:00,
2013-12-04 14:39:00,73.2,60.7,29.52,South,183,2.0,11.0,65,0.00,,---,0.00,VWS V14.01,2013-12-04 20:39:00,
2013-12-04 14:44:00,73.2,60.7,29.52,SW,222,3.0,11.0,65,0.00,,---,0.00,VWS V14.01,2013-12-04 20:44:00,
2013-12-04 14:49:00,73.3,60.8,29.53,South,175,1.0,12.0,65,0.00,,---,0.00,VWS V14.01,2013-12-04 20:49:00,
2013-12-04 14:54:00,73.5,61.0,29.53,South,177,1.0,12.0,65,0.00,,---,0.00,VWS V14.01,2013-12-04 20:54:00,
2013-12-04 14:59:00,73.5,61.0,29.53,SE,134,11.0,12.0,65,0.00,,---,0.00,VWS V14.01,2013-12-04 20:59:00,
2013-12-04 15:04:00,73.5,61.0,29.53,SSW,208,4.0,13.0,65,0.00,,---,0.00,VWS V14.01,2013-12-04 21:04:00,
2013-12-04 15:09:00,73.7,61.2,29.53,WSW,249,5.0,15.0,65,0.00,,---,0.00,VWS V14.01,2013-12-04 21:09:00,
2013-12-04 15:14:00,73.8,61.3,29.53,SSE,150,6.0,15.0,65,0.00,,---,0.00,VWS V14.01,2013-12-04 21:14:00,
2013-12-04 15:19:00,73.7,60.8,29.53,South,174,4.0,15.0,64,0.00,,---,0.00,VWS V14.01,2013-12-04 21:19:00,
2013-12-04 15:24:00,73.6,61.1,29.53,South,183,3.0,15.0,65,0.00,,---,0.00,VWS V14.01,2013-12-04 21:24:00,
2013-12-04 15:29:00,73.7,61.2,29.53,SSW,209,5.0,17.0,65,0.00,,---,0.00,VWS V14.01,2013-12-04 21:29:00,
2013-12-04 15:34:00,73.5,61.0,29.53,SSW,205,2.0,7.0,65,0.00,,---,0.00,VWS V14.01,2013-12-04 21:34:00,
2013-12-04 15:39:00,73.5,61.0,29.53,SSW,194,4.0,9.0,65,0.00,,---,0.00,VWS V14.01,2013-12-04 21:39:00,
2013-12-04 15:44:00,73.4,60.9,29.53,South,190,0.0,11.0,65,0.00,,---,0.00,VWS V14.01,2013-12-04 21:44:00,
2013-12-04 15:49:00,73.3,60.8,29.54,SSW,203,2.0,11.0,65,0.00,,---,0.00,VWS V14.01,2013-12-04 21:49:00,
2013-12-04 15:54:00,73.2,61.2,29.54,South,184,2.0,11.0,66,0.00,,---,0.00,VWS V14.01,2013-12-04 21:54:00,
2013-12-04 15:59:00,73.1,61.1,29.54,South,177,4.0,12.0,66,0.00,,---,0.00,VWS V14.01,2013-12-04 21:59:00,
2013-12-04 16:04:00,72.9,60.9,29.54,South,180,2.0,5.0,66,0.00,,---,0.00,VWS V14.01,2013-12-04 22:04:00,
2013-12-04 16:09:00,72.7,60.7,29.54,SSW,201,0.0,9.0,66,0.00,,---,0.00,VWS V14.01,2013-12-04 22:09:00,
2013-12-04 16:14:00,72.4,60.8,29.54,SW,221,2.0,11.0,67,0.00,,---,0.00,VWS V14.01,2013-12-04 22:14:00,
2013-12-04 16:19:00,72.1,60.5,29.55,SSE,164,2.0,11.0,67,0.00,,---,0.00,VWS V14.01,2013-12-04 22:19:00,
2013-12-04 16:24:00,71.7,60.6,29.55,South,175,0.0,11.0,68,0.00,,---,0.00,VWS V14.01,2013-12-04 22:24:00,
2013-12-04 16:29:00,71.4,60.7,29.55,SSE,161,2.0,11.0,69,0.00,,---,0.00,VWS V14.01,2013-12-04 22:29:00,
2013-12-04 16:34:00,71.1,60.4,29.56,SSE,162,2.0,2.0,69,0.00,,---,0.00,VWS V14.01,2013-12-04 22:34:00,
2013-12-04 16:39:00,70.8,60.5,29.56,SSE,148,0.0,6.0,70,0.00,,---,0.00,VWS V14.01,2013-12-04 22:39:00,
2013-12-04 16:44:00,70.5,60.3,29.56,SSE,163,0.0,7.0,70,0.00,,---,0.00,VWS V14.01,2013-12-04 22:44:00,
2013-12-04 16:49:00,70.4,60.2,29.56,SSE,168,5.0,10.0,70,0.00,,---,0.00,VWS V14.01,2013-12-04 22:49:00,
2013-12-04 16:54:00,70.2,60.4,29.56,South,172,0.0,10.0,71,0.00,,---,0.00,VWS V14.01,2013-12-04 22:54:00,
2013-12-04 16:59:00,70.0,60.2,29.56,South,179,1.0,10.0,71,0.00,,---,0.00,VWS V14.01,2013-12-04 22:59:00,
2013-12-04 17:04:00,69.7,59.9,29.55,SSE,158,0.0,4.0,71,0.00,,---,0.00,VWS V14.01,2013-12-04 23:04:00,
2013-12-04 17:09:00,69.5,60.1,29.55,SSE,167,0.0,6.0,72,0.00,,---,0.00,VWS V14.01,2013-12-04 23:09:00,
2013-12-04 17:14:00,69.3,59.9,29.55,South,175,2.0,6.0,72,0.00,,---,0.00,VWS V14.01,2013-12-04 23:14:00,
2013-12-04 17:19:00,69.2,59.8,29.55,South,188,0.0,7.0,72,0.00,,---,0.00,VWS V14.01,2013-12-04 23:19:00,
2013-12-04 17:24:00,69.0,60.0,29.55,SSW,209,0.0,7.0,73,0.00,,---,0.00,VWS V14.01,2013-12-04 23:24:00,
2013-12-04 17:29:00,68.7,59.7,29.55,SW,234,0.0,7.0,73,0.00,,---,0.00,VWS V14.01,2013-12-04 23:29:00,
2013-12-04 17:34:00,68.5,59.5,29.56,SE,144,0.0,0.0,73,0.00,,---,0.00,VWS V14.01,2013-12-04 23:34:00,
2013-12-04 17:39:00,68.4,59.8,29.56,SSE,163,0.0,9.0,74,0.00,,---,0.00,VWS V14.01,2013-12-04 23:39:00,
2013-12-04 17:44:00,68.3,59.7,29.56,South,181,0.0,9.0,74,0.00,,---,0.00,VWS V14.01,2013-12-04 23:44:00,
2013-12-04 17:49:00,68.3,59.7,29.56,West,271,2.0,9.0,74,0.00,,---,0.00,VWS V14.01,2013-12-04 23:49:00,
2013-12-04 17:54:00,68.1,59.5,29.56,SSE,160,0.0,9.0,74,0.00,,---,0.00,VWS V14.01,2013-12-04 23:54:00,
2013-12-04 17:59:00,68.0,59.8,29.56,South,178,0.0,9.0,75,0.00,,---,0.00,VWS V14.01,2013-12-04 23:59:00,
2013-12-04 18:04:00,67.8,59.6,29.57,South,176,0.0,4.0,75,0.00,,---,0.00,VWS V14.01,2013-12-05 00:04:00,
2013-12-04 18:09:00,67.6,59.4,29.57,SSE,167,0.0,6.0,75,0.00,,---,0.00,VWS V14.01,2013-12-05 00:09:00,
2013-12-04 18:14:00,67.6,59.8,29.57,South,191,0.0,9.0,76,0.00,,---,0.00,VWS V14.01,2013-12-05 00:14:00,
2013-12-04 18:19:00,67.5,59.7,29.57,South,175,2.0,9.0,76,0.00,,---,0.00,VWS V14.01,2013-12-05 00:19:00,
2013-12-04 18:24:00,67.4,59.6,29.57,SSE,165,0.0,9.0,76,0.00,,---,0.00,VWS V14.01,2013-12-05 00:24:00,
2013-12-04 18:29:00,67.2,59.4,29.57,South,182,0.0,9.0,76,0.00,,---,0.00,VWS V14.01,2013-12-05 00:29:00,
2013-12-04 18:34:00,67.2,59.4,29.58,SSE,159,6.0,6.0,76,0.00,,---,0.00,VWS V14.01,2013-12-05 00:34:00,
2013-12-04 18:39:00,67.1,59.3,29.58,South,180,7.0,9.0,76,0.00,,---,0.00,VWS V14.01,2013-12-05 00:39:00,
2013-12-04 18:44:00,67.2,59.4,29.58,SSE,163,2.0,11.0,76,0.00,,---,0.00,VWS V14.01,2013-12-05 00:44:00,
2013-12-04 18:49:00,67.2,59.4,29.58,SSE,159,4.0,11.0,76,0.00,,---,0.00,VWS V14.01,2013-12-05 00:49:00,
2013-12-04 18:54:00,67.0,59.2,29.58,South,169,0.0,11.0,76,0.00,,---,0.00,VWS V14.01,2013-12-05 00:54:00,
2013-12-04 18:59:00,67.0,59.6,29.58,South,172,2.0,11.0,77,0.00,,---,0.00,VWS V14.01,2013-12-05 00:59:00,
2013-12-04 19:04:00,66.9,59.5,29.59,SSW,202,0.0,2.0,77,0.00,,---,0.00,VWS V14.01,2013-12-05 01:04:00,
2013-12-04 19:09:00,66.9,59.5,29.59,SW,217,0.0,4.0,77,0.00,,---,0.00,VWS V14.01,2013-12-05 01:09:00,
2013-12-04 19:14:00,66.9,59.5,29.59,SSE,150,0.0,10.0,77,0.00,,---,0.00,VWS V14.01,2013-12-05 01:14:00,
2013-12-04 19:19:00,66.8,59.4,29.59,SSW,205,0.0,10.0,77,0.00,,---,0.00,VWS V14.01,2013-12-05 01:19:00,
2013-12-04 19:24:00,66.7,59.3,29.59,SSW,204,0.0,10.0,77,0.00,,---,0.00,VWS V14.01,2013-12-05 01:24:00,
2013-12-04 19:29:00,66.6,59.5,29.59,SW,222,0.0,10.0,78,0.00,,---,0.00,VWS V14.01,2013-12-05 01:29:00,
2013-12-04 19:34:00,66.6,59.5,29.60,SW,215,1.0,3.0,78,0.00,,---,0.00,VWS V14.01,2013-12-05 01:34:00,
2013-12-04 19:39:00,66.7,59.6,29.60,SW,235,4.0,6.0,78,0.00,,---,0.00,VWS V14.01,2013-12-05 01:39:00,
2013-12-04 19:44:00,66.8,59.7,29.60,SW,219,2.0,7.0,78,0.00,,---,0.00,VWS V14.01,2013-12-05 01:44:00,
2013-12-04 19:49:00,66.8,59.7,29.62,WSW,240,0.0,7.0,78,0.00,,---,0.00,VWS V14.01,2013-12-05 01:49:00,
2013-12-04 19:54:00,66.7,59.6,29.62,SW,224,0.0,7.0,78,0.00,,---,0.00,VWS V14.01,2013-12-05 01:54:00,
2013-12-04 19:59:00,66.7,59.6,29.62,SW,224,2.0,7.0,78,0.00,,---,0.00,VWS V14.01,2013-12-05 01:59:00,
2013-12-04 20:04:00,66.6,59.9,29.62,SW,224,0.0,3.0,79,0.00,,---,0.00,VWS V14.01,2013-12-05 02:04:00,
2013-12-04 20:09:00,66.6,59.9,29.62,SW,224,0.0,4.0,79,0.00,,---,0.00,VWS V14.01,2013-12-05 02:09:00,
2013-12-04 20:14:00,66.5,59.8,29.62,SW,223,0.0,4.0,79,0.00,,---,0.00,VWS V14.01,2013-12-05 02:14:00,
2013-12-04 20:19:00,66.5,59.8,29.62,SW,224,0.0,4.0,79,0.00,,---,0.00,VWS V14.01,2013-12-05 02:19:00,
2013-12-04 20:24:00,66.5,59.8,29.62,SW,224,0.0,4.0,79,0.00,,---,0.00,VWS V14.01,2013-12-05 02:24:00,
2013-12-04 20:29:00,66.5,60.2,29.62,WSW,245,0.0,4.0,80,0.00,,---,0.00,VWS V14.01,2013-12-05 02:29:00,
2013-12-04 20:34:00,66.6,60.2,29.64,SW,221,1.0,4.0,80,0.00,,---,0.00,VWS V14.01,2013-12-05 02:34:00,
2013-12-04 20:39:00,66.7,60.3,29.64,SW,221,0.0,4.0,80,0.00,,---,0.00,VWS V14.01,2013-12-05 02:39:00,
2013-12-04 20:44:00,66.8,60.4,29.64,SW,221,0.0,4.0,80,0.00,,---,0.00,VWS V14.01,2013-12-05 02:44:00,
2013-12-04 20:49:00,66.8,60.4,29.64,SW,219,0.0,4.0,80,0.00,,---,0.00,VWS V14.01,2013-12-05 02:49:00,
2013-12-04 20:54:00,66.9,60.5,29.64,SW,219,0.0,4.0,80,0.00,,---,0.00,VWS V14.01,2013-12-05 02:54:00,
2013-12-04 20:59:00,66.8,60.4,29.64,South,190,0.0,4.0,80,0.00,,---,0.00,VWS V14.01,2013-12-05 02:59:00,
2013-12-04 21:04:00,66.8,60.4,29.64,South,190,1.0,2.0,80,0.00,,---,0.00,VWS V14.01,2013-12-05 03:04:00,
2013-12-04 21:09:00,66.8,60.4,29.64,SSW,194,0.0,2.0,80,0.00,,---,0.00,VWS V14.01,2013-12-05 03:09:00,
2013-12-04 21:14:00,66.8,60.4,29.64,SSE,167,0.0,3.0,80,0.00,,---,0.00,VWS V14.01,2013-12-05 03:14:00,
2013-12-04 21:19:00,66.7,60.3,29.64,SSW,200,0.0,3.0,80,0.00,,---,0.00,VWS V14.01,2013-12-05 03:19:00,
2013-12-04 21:24:00,66.7,60.7,29.64,SSW,200,0.0,3.0,81,0.00,,---,0.00,VWS V14.01,2013-12-05 03:24:00,
2013-12-04 21:29:00,66.6,60.6,29.64,WSW,238,0.0,3.0,81,0.00,,---,0.00,VWS V14.01,2013-12-05 03:29:00,
2013-12-04 21:34:00,66.5,60.5,29.65,WSW,238,0.0,4.0,81,0.00,,---,0.00,VWS V14.01,2013-12-05 03:34:00,
2013-12-04 21:39:00,66.5,60.5,29.65,South,191,0.0,4.0,81,0.00,,---,0.00,VWS V14.01,2013-12-05 03:39:00,
2013-12-04 21:44:00,66.5,60.8,29.65,SSW,211,0.0,4.0,82,0.00,,---,0.00,VWS V14.01,2013-12-05 03:44:00,
2013-12-04 21:49:00,66.6,60.9,29.65,SSW,206,1.0,4.0,82,0.00,,---,0.00,VWS V14.01,2013-12-05 03:49:00,
2013-12-04 21:54:00,66.8,61.1,29.65,SSE,161,2.0,6.0,82,0.00,,---,0.00,VWS V14.01,2013-12-05 03:54:00,
2013-12-04 21:59:00,66.9,60.9,29.65,SSE,166,0.0,6.0,81,0.00,,---,0.00,VWS V14.01,2013-12-05 03:59:00,
2013-12-04 22:05:00,67.0,61.0,29.65,SSW,209,1.0,5.0,81,0.00,,---,0.00,VWS V14.01,2013-12-05 04:05:00,
2013-12-04 22:10:00,67.1,61.1,29.65,South,182,2.0,6.0,81,0.00,,---,0.00,VWS V14.01,2013-12-05 04:10:00,
2013-12-04 22:15:00,67.2,61.5,29.65,South,175,0.0,6.0,82,0.00,,---,0.00,VWS V14.01,2013-12-05 04:15:00,
2013-12-04 22:20:00,67.2,61.2,29.65,SW,225,8.0,8.0,81,0.00,,---,0.00,VWS V14.01,2013-12-05 04:20:00,
2013-12-04 22:25:00,67.3,61.3,29.65,South,175,0.0,8.0,81,0.00,,---,0.00,VWS V14.01,2013-12-05 04:25:00,
2013-12-04 22:29:00,67.4,61.4,29.65,SSW,193,0.0,8.0,81,0.00,,---,0.00,VWS V14.01,2013-12-05 04:29:00,
2013-12-04 22:34:00,67.5,61.5,29.66,SSW,194,0.0,7.0,81,0.00,,---,0.00,VWS V14.01,2013-12-05 04:34:00,
2013-12-04 22:40:00,67.5,61.5,29.66,SSW,213,3.0,7.0,81,0.00,,---,0.00,VWS V14.01,2013-12-05 04:40:00,
2013-12-04 22:45:00,67.5,61.5,29.66,SSW,210,3.0,7.0,81,0.00,,---,0.00,VWS V14.01,2013-12-05 04:45:00,
2013-12-04 22:50:00,67.5,61.5,29.66,South,190,2.0,9.0,81,0.00,,---,0.00,VWS V14.01,2013-12-05 04:50:00,
2013-12-04 22:55:00,67.4,61.4,29.66,South,190,3.0,9.0,81,0.00,,---,0.00,VWS V14.01,2013-12-05 04:55:00,
2013-12-04 23:00:00,67.4,61.7,29.66,South,170,2.0,9.0,82,0.00,,---,0.00,VWS V14.01,2013-12-05 05:00:00,
2013-12-04 23:01:00,67.3,61.6,29.66,South,170,2.0,9.0,82,0.00,,---,0.00,VWS V14.01,2013-12-05 05:01:00,
2013-12-04 23:02:00,67.3,61.6,29.66,SSW,192,2.0,9.0,82,0.00,,---,0.00,VWS V14.01,2013-12-05 05:02:00,
2013-12-04 23:03:00,67.3,61.6,29.66,South,174,0.0,3.0,82,0.00,,---,0.00,VWS V14.01,2013-12-05 05:03:00,
2013-12-04 23:08:00,67.3,61.6,29.66,South,173,1.0,6.0,82,0.00,,---,0.00,VWS V14.01,2013-12-05 05:08:00,
2013-12-04 23:13:00,67.2,61.5,29.66,SSW,199,0.0,6.0,82,0.00,,---,0.00,VWS V14.01,2013-12-05 05:13:00,
2013-12-04 23:18:00,67.1,61.4,29.66,WSW,238,0.0,6.0,82,0.00,,---,0.00,VWS V14.01,2013-12-05 05:18:00,
2013-12-04 23:23:00,67.1,61.8,29.66,SSW,203,3.0,7.0,83,0.00,,---,0.00,VWS V14.01,2013-12-05 05:23:00,
2013-12-04 23:28:00,67.3,62.0,29.66,SW,230,4.0,9.0,83,0.00,,---,0.00,VWS V14.01,2013-12-05 05:28:00,
2013-12-04 23:33:00,67.4,62.1,29.66,SW,217,3.0,4.0,83,0.00,,---,0.00,VWS V14.01,2013-12-05 05:33:00,
2013-12-04 23:38:00,67.5,61.8,29.66,South,171,0.0,11.0,82,0.00,,---,0.00,VWS V14.01,2013-12-05 05:38:00,
2013-12-04 23:43:00,67.6,61.9,29.66,WSW,238,5.0,11.0,82,0.00,,---,0.00,VWS V14.01,2013-12-05 05:43:00,
2013-12-04 23:48:00,67.6,62.3,29.66,SW,218,1.0,11.0,83,0.00,,---,0.00,VWS V14.01,2013-12-05 05:48:00,
2013-12-04 23:53:00,67.7,62.4,29.66,SSE,159,1.0,11.0,83,0.00,,---,0.00,VWS V14.01,2013-12-05 05:53:00,
2013-12-04 23:58:00,67.8,62.1,29.66,South,176,0.0,11.0,82,0.00,,---,0.00,VWS V14.01,2013-12-05 05:58:00,